"Pseudo-MPEC" for P113sdv

Created 2020 Aug 6 7:07:14 UT using Find_Orb

Click here for an explanation of pseudo-MPECs

 
 Astrometry: 
     P113sdv  C2020 08 01D=[Do?jCxsSc_.RS\!0tU53yc\-ySQHrJ9LHkF!T_c,8-.0\=yoXF51
     P113sdv  C2020 08 01S@?,NKUFuHrCmryHWb.AstrometryIbredacted;WLRtGk(YDR*PF51
     P113sdv  C2020 08 01#9Pya#v/uuW-^eV[h'3b-4-iGQE6P#OVk]-Y(W@@clickvvA2dE'F51
     P113sdv  C2020 08 01c44R5@Q5V'm_b#PE0here*X9;xYfor8explanationOTJm0INs7=F51

Station data:
(F51) Pan-STARRS 1, Haleakala  (N20.707235 W156.255910)  US/Hawaii.
   Observers N. Primak, A. Schultz, S. Watters, J. Thiel, T. Goggia. Measurer
   PS1 Science Consortium. 1.8-m Ritchey-Chrétien + CCD.

Orbital elements:  P113sdv
   Perihelion 2020 Aug 21.261914 +/- 20.6 TT =  6:17:09 (JD 2459082.761914)
Epoch 2020 Aug  2.0 TT = JDT 2459063.5   Earth MOID: 0.0074   AutoNEOCP
M 345.10675279 +/- 38               (J2000 ecliptic)
n   0.77319662 +/- 0.607            Peri.  214.51379 +/- 60
a   1.17564467 +/- 0.615            Node   115.81558 +/- 49
e   0.1372269 +/- 0.225             Incl.    0.98104 +/- 36
P   1.27/465.59d           H 28.0   G  0.15   U 12.4  SR
q 1.01431454 +/- 0.325    Q 1.33697480 +/- 21.7
From 4 observations 2020 Aug. 1 (33.3 min); mean residual 0".12
Residuals in arcseconds: 
200801 F51  .14+  .08-    200801 F51  .05+  .06+    
200801 F51  .24-  .10+    200801 F51  .05+  .08-    

Ephemerides (geocentric):
Date (UTC) HH   RA              Dec         delta   r     elong  mag " sig PA
---- -- -- --  -------------   -----------  ------ ------ -----  --- ---- ---
2020 08 06 07  02 16 31.041   -05 23 13.72  .01864 1.0187 103.3 22.0  59d 171
2020 08 06 08  02 16 59.985   -05 20 25.13  .01868 1.0187 103.2 22.0  59d 171
2020 08 06 09  02 17 28.794   -05 17 37.21  .01873 1.0186 103.2 22.0  59d 171
2020 08 06 10  02 17 57.470   -05 14 49.96  .01877 1.0186 103.1 22.1  59d 171
2020 08 06 11  02 18 26.013   -05 12 03.38  .01881 1.0186 103.0 22.1  59d 171
2020 08 06 12  02 18 54.424   -05 09 17.46  .01885 1.0186 102.9 22.1  60d 171
2020 08 06 13  02 19 22.703   -05 06 32.20  .01889 1.0185 102.8 22.1  60d 171
2020 08 06 14  02 19 50.852   -05 03 47.61  .01893 1.0185 102.7 22.1  60d 171
2020 08 06 15  02 20 18.870   -05 01 03.67  .01897 1.0185 102.6 22.1  60d 171
2020 08 06 16  02 20 46.759   -04 58 20.40  .01902 1.0185 102.5 22.1  60d 171
2020 08 06 17  02 21 14.520   -04 55 37.78  .01906 1.0184 102.5 22.1  60d 172
2020 08 06 18  02 21 42.152   -04 52 55.81  .01910 1.0184 102.4 22.1  60d 172
2020 08 06 19  02 22 09.657   -04 50 14.50  .01914 1.0184 102.3 22.1  60d 172
2020 08 06 20  02 22 37.036   -04 47 33.84  .01918 1.0184 102.2 22.1  60d 172
2020 08 06 21  02 23 04.289   -04 44 53.82  .01922 1.0184 102.1 22.1  60d 172
2020 08 06 22  02 23 31.416   -04 42 14.46  .01927 1.0183 102.0 22.1  60d 172
2020 08 06 23  02 23 58.419   -04 39 35.73  .01931 1.0183 102.0 22.1  60d 172
2020 08 07 00  02 24 25.298   -04 36 57.65  .01935 1.0183 101.9 22.2  60d 172
2020 08 07 01  02 24 52.054   -04 34 20.22  .01939 1.0183 101.8 22.2  60d 172
2020 08 07 02  02 25 18.687   -04 31 43.42  .01944 1.0182 101.7 22.2  60d 172
2020 08 07 03  02 25 45.198   -04 29 07.25  .01948 1.0182 101.6 22.2  60d 172
2020 08 07 04  02 26 11.588   -04 26 31.72  .01952 1.0182 101.6 22.2  60d 172
2020 08 07 05  02 26 37.858   -04 23 56.83  .01956 1.0182 101.5 22.2  60d 172
2020 08 07 06  02 27 04.008   -04 21 22.57  .01961 1.0181 101.4 22.2  60d 172
2020 08 07 07  02 27 30.038   -04 18 48.93  .01965 1.0181 101.3 22.2  60d 172
2020 08 07 08  02 27 55.950   -04 16 15.92  .01969 1.0181 101.2 22.2  60d 172
2020 08 07 09  02 28 21.744   -04 13 43.53  .01973 1.0181 101.2 22.2  60d 172
2020 08 07 10  02 28 47.421   -04 11 11.77  .01978 1.0181 101.1 22.2  60d 172
2020 08 07 11  02 29 12.981   -04 08 40.63  .01982 1.0180 101.0 22.2  60d 172
2020 08 07 12  02 29 38.425   -04 06 10.10  .01986 1.0180 100.9 22.2  60d 172
2020 08 07 13  02 30 03.753   -04 03 40.20  .01991 1.0180 100.9 22.3  60d 172
2020 08 07 14  02 30 28.967   -04 01 10.90  .01995 1.0180 100.8 22.3  60d 172
2020 08 07 15  02 30 54.067   -03 58 42.22  .01999 1.0179 100.7 22.3  60d 172
2020 08 07 16  02 31 19.054   -03 56 14.14  .02003 1.0179 100.6 22.3  60d 172
2020 08 07 17  02 31 43.927   -03 53 46.68  .02008 1.0179 100.6 22.3  60d 172
2020 08 07 18  02 32 08.689   -03 51 19.81  .02012 1.0179 100.5 22.3  60d 172
2020 08 07 19  02 32 33.339   -03 48 53.55  .02016 1.0178 100.4 22.3  60d 172
2020 08 07 20  02 32 57.878   -03 46 27.89  .02021 1.0178 100.4 22.3  60d 172
2020 08 07 21  02 33 22.306   -03 44 02.83  .02025 1.0178 100.3 22.3  59d 172
2020 08 07 22  02 33 46.625   -03 41 38.37  .02030 1.0178 100.2 22.3  59d 172
2020 08 07 23  02 34 10.835   -03 39 14.49  .02034 1.0178 100.1 22.3  59d 172
2020 08 08 00  02 34 34.936   -03 36 51.21  .02038 1.0177 100.1 22.3  59d 172
2020 08 08 01  02 34 58.929   -03 34 28.52  .02043 1.0177 100.0 22.3  59d 172
2020 08 08 02  02 35 22.815   -03 32 06.42  .02047 1.0177  99.9 22.3  59d 172
2020 08 08 03  02 35 46.594   -03 29 44.90  .02051 1.0177  99.9 22.3  59d 172
2020 08 08 04  02 36 10.267   -03 27 23.96  .02056 1.0177  99.8 22.4  59d 172
2020 08 08 05  02 36 33.835   -03 25 03.60  .02060 1.0176  99.7 22.4  59d 172
2020 08 08 06  02 36 57.298   -03 22 43.82  .02065 1.0176  99.7 22.4  59d 172